Terminal Aerodrome Forecast
Issued by NWS Greer, SC

Home | Current Version | Previous Version | Text Only | Print | Product List | Glossary On
Versions: 1 2 3 4 5 6 7 8 9 10 11 12 13 14 15 16 17 18 19 20 21 22 23 24 25 26 27
000
FTUS42 KGSP 031736
TAFGSP
TAF
KGSP 031736Z 0318/0418 24012G18KT P6SM VCSH SCT020 BKN060
      TEMPO 0318/0322 -SHRA BKN020 OVC060
     FM032200 25012G20KT P6SM VCSH BKN040 OVC100
     FM040200 24010KT P6SM SCT050 BKN100
     FM040800 24007KT P6SM BKN015
     FM041300 24011KT P6SM VCSH BKN025=

USA.gov is the U.S. government's official web portal to all federal, state and local government web resources and services.